Regional Weather Roundup
Issued by NWS Upton, NY

Current Version | Previous Version | Text Only | Print | Product List | Glossary On
Versions: 1 2 3 4 5 6 7 8 9 10 11 12 13 14 15 16 17 18 19 20 21 22 23 24 25 26 27 28 29 30 31 32 33 34 35 36 37 38 39 40 41 42 43 44 45 46 47 48 49 50
000 ASUS41 KOKX 021918 RWROKX REGIONAL WEATHER ROUNDUP NATIONAL WEATHER SERVICE NEW YORK NY 300 PM EDT THU JUL 02 2015 NOTE: "FAIR" INDICATES FEW OR NO CLOUDS BELOW 12,000 FEET WITH NO SIGNIFICANT WEATHER AND/OR OBSTRUCTIONS TO VISIBILITY. NYZ071-072-176-178-NJZ106-104-022000- NEW YORK CITY METRO AREA CITY SKY/WX TMP DP RH WIND PRES REMARKS CENTRAL PARK CLOUDY 76 59 55 CALM 29.91F LAGUARDIA APRT CLOUDY 79 57 46 S13 29.88F KENNEDY INTL CLOUDY 79 58 48 S12 29.91S NEWARK/LIBERTY CLOUDY 79 59 50 S8 29.88F BRNX BOT. GARD N/A 75 57 53 E2 29.89S TETERBORO CLOUDY 80 55 42 N8 29.87F $$ NYZ177-179-078>081-022000- LONG ISLAND NEW YORK CITY SKY/WX TMP DP RH WIND PRES REMARKS FARMINGDALE CLOUDY 75 60 59 S12 29.91R ISLIP CLOUDY 75 58 55 S10 29.89R SHIRLEY CLOUDY 76 61 59 S8 29.91R WESTHAMPTON CLOUDY 75 60 59 S5 29.92S MONTAUK POINT N/A 75 58 55 N3 29.91S $$ NYZ052-065-067-022000- HUDSON VALLEY CITY SKY/WX TMP DP RH WIND PRES REMARKS WHITE PLAINS CLOUDY 76 57 51 NW6 29.90S NEWBURGH MOSUNNY 75 59 57 W8 29.92S MONTGOMERY PTSUNNY 77 57 50 W3 29.90S POUGHKEEPSIE CLOUDY 77 56 48 CALM 29.90R ALBANY MOSUNNY 76 52 43 NW14G21 29.91R $$ NJZ001-105-106-008-010-013-015-019>022-104-022000- NEW JERSEY CITY SKY/WX TMP DP RH WIND PRES REMARKS NEWARK/LIBERTY CLOUDY 79 59 50 S8 29.88F TETERBORO CLOUDY 80 55 42 N8 29.87F CALDWELL CLOUDY 78 59 51 N6 29.90S MORRISTOWN CLOUDY 81 57 44 CALM 29.90S SOMERVILLE CLOUDY 77 63 61 CALM 29.88S SUSSEX CLOUDY 77 56 48 CALM 29.91F ANDOVER N/A 77 58 51 CALM 29.92S TRENTON CLOUDY 76 61 59 VRB5 29.89F MILLVILLE CLOUDY 68 65 90 NE7 29.89F FOG ATLANTIC CITY HVY RAIN 67 66 97 NE7 29.89S FOG WRIGHTSTOWN CLOUDY 72 60 65 E8 29.87F TOMS RIVER CLOUDY 66 64 94 CALM 29.90F BELMAR CLOUDY 72 57 60 E8 29.90S $$ PAZ047>061-062-071-022000- EASTERN PENNSYLVANIA CITY SKY/WX TMP DP RH WIND PRES REMARKS PHILADELPHIA CLOUDY 77 63 61 NE6 29.89F ALLENTOWN CLOUDY 78 60 53 S8 29.90S SCRANTON PTSUNNY 77 56 48 N8 29.92F $$ CTZ002-004>006-009-010-012-RIZ004-006-007-MAZ004-011-015-022000- SOUTHERN NEW ENGLAND IN CT CITY SKY/WX TMP DP RH WIND PRES REMARKS BRADLEY INTL PTSUNNY 77 56 48 N5 29.88F HARTFORD CLOUDY 78 56 46 SW10 29.89S DANBURY CLOUDY 75 57 53 W6 29.92S WTRBRY/OXFORD MOSUNNY 73 57 56 CALM 29.94S BRIDGEPORT CLOUDY 76 56 49 SW5 29.90S MERIDEN CLOUDY 78 58 49 W5 29.89F NEW HAVEN CLOUDY 74 60 61 S7 29.90S CHESTER FAIR 75 61 60 SW5 29.91S GROTON CLOUDY 73 60 63 SW6 29.89S WILLIMANTIC CLOUDY 78 57 48 W8 29.90S IN RI CITY SKY/WX TMP DP RH WIND PRES REMARKS PROVIDENCE CLOUDY 76 60 57 SE9 29.88F BLOCK ISLAND CLOUDY 73 59 60 CALM 29.90S WESTERLY CLOUDY 76 56 49 SW7 29.90S IN MA CITY SKY/WX TMP DP RH WIND PRES REMARKS BOSTON PTSUNNY 78 56 46 W9 29.87S WORCESTER PTSUNNY 75 54 47 W12 29.92R WESTFIELD MOSUNNY 78 54 43 W6 29.89 PROVINCETOWN SUNNY 81 19 10 SW10 29.88R NANTUCKET SUNNY 74 59 59 S6 29.89F $$ ANZ330-335-338-340-345-350-353-355-022000- COASTAL MARINE OBSERVATIONS STATION/POSITION TIME SKY/WX TEMP WIND PRES VSBY WAVE AIR SEA DIR/SP/G HT/PER (UTC) (F) (DEG/KT/KT) (MB) (MI) (FT/S) NY HARB ENTRANCE 1850 70 70 130/ 8/ 10 1012.2 3/ 9 4S FIRE IS 1803 71 N/A 4/ 8 20S FIRE ISLAND 1850 67 68 50/ 2/ 2 1012.7 4/ 9 GREAT SOUTH BAY 1800 72 76 180/ 8/ 8 N/A 23SW MTP 1850 68 67 CALM / 2 1012.2 4/ 8 HUDSON CANYON NOT AVBL KINGS POINT 1800 78 65 10/ 2/ 3 1011.6 CENTRAL LI SOUND NOT AVBL EASTERN LI SOUND 1815 69 64 210/ 4/ 4 N/A ROBBINS REEF 1800 74 160/ 11/ 12 1011.1 $$ >>>>>>>>>>>>>>>>>>>>>>>>>>>> KEY <<<<<<<<<<<<<<<<<<<<<<<<<<< > < > SKY/WX - SKY CONDITION/PRESENT WEATHER < > TMP - TEMPERATURE IN FAHRENHEIT < > DP - DEWPOINT IN FAHRENHEIT < > RH - RELATIVE HUMIDITY IN PERCENT < > WIND - DIRECTION AND SPEED IN MPH < > PRES - MEAN SEA LEVEL PRESSURE IN INCHES OF HG < > WCI - WIND CHILL INDEX < > VSB - VISIBILITY IN MILES < > HX - HEAT INDEX < > TC - TEMPERATURE IN CELSIUS < > VRB - VARIABLE WIND DIRECTION < > < >>>>>>>>>>>>>>>>>>>>>>>>>>>> KEY <<<<<<<<<<<<<<<<<<<<<<<<<<<

USA.gov is the U.S. government's official web portal to all federal, state and local government web resources and services.